Regional Weather Roundup
Issued by NWS Little Rock, AR

Home | Current Version | Previous Version | Graphics & Text | Print | Product List | Glossary On
Versions: 1 2 3 4 5 6 7 8 9 10 11 12 13 14 15 16 17 18 19 20 21 22 23 24 25 26 27 28 29 30 31 32 33 34 35 36 37 38 39 40 41 42 43 44 45 46 47 48 49 50
287
ASUS44 KLZK 071205
RWRLZK

WEATHER ROUNDUP FOR ARKANSAS
NATIONAL WEATHER SERVICE LITTLE ROCK AR
600 AM CST SUN FEB 07 2016

NOTE: "FAIR" INDICATES FEW OR NO CLOUDS BELOW 12,000 FEET WITH NO
SIGNIFICANT WEATHER AND/OR OBSTRUCTIONS TO VISIBILITY.

ARZ001-003-010-029-071300-
NORTHWEST ARKANSAS

CITY           SKY/WX    TMP DP  RH WIND       PRES   REMARKS
FAYETTEVILLE   CLEAR     34  29  82 S9        30.15S WCI  27
6HR MIN TEMP:  27; 6HR MAX TEMP:  35;

FORT SMITH     CLEAR     29  24  82 N6        30.19F WCI  23
6HR MIN TEMP:  29; 6HR MAX TEMP:  38;

HARRISON       CLEAR     39  28  64 S7        30.12F
6HR MIN TEMP:  37; 6HR MAX TEMP:  42;

BENTONVILLE    CLEAR     34  27  75 SW5       30.14S WCI  30
ROGERS         CLEAR     36  30  79 SW8       30.13F
6HR MIN TEMP:  35; 6HR MAX TEMP:  39;

SILOAM SPGS    CLEAR     36  25  64 SW8       30.15S
6HR MIN TEMP:  34; 6HR MAX TEMP:  37;

HIGHFILL       CLEAR     36  30  79 SW9       30.13F
6HR MIN TEMP:  36; 6HR MAX TEMP:  39;

SPRINGDALE     CLEAR     39  30  70 SW12      30.15
$$

ARZ004-005-016-071300-
NORTH CENTRAL ARKANSAS

CITY           SKY/WX    TMP DP  RH WIND       PRES   REMARKS
BATESVILLE     PTCLDY    39  19  45 S6        30.20F
6HR MIN TEMP:  37; 6HR MAX TEMP:  43;

FLIPPIN        CLEAR     30  18  59 CALM      30.12F
6HR MIN TEMP:  28; 6HR MAX TEMP:  39;

MTN HOME       CLEAR     35  19  52 S8        30.13F WCI  29
6HR MIN TEMP:  32; 6HR MAX TEMP:  39;

$$

ARZ040-041-071300-
WEST CENTRAL ARKANSAS

CITY           SKY/WX    TMP DP  RH WIND       PRES   REMARKS
MENA           CLEAR     28  25  86 CALM      30.21F
MOUNT IDA      PTCLDY    25  21  85 SE3       30.20F
6HR MIN TEMP:  24; 6HR MAX TEMP:  30;

$$

ARZ009-017-025-026-028-071300-
NORTHEAST ARKANSAS

CITY           SKY/WX    TMP DP  RH WIND       PRES   REMARKS
CORNING        FAIR      32  27  80 S10       30.18F WCI  24
JONESBORO      CLEAR     35  25  66 SW6       30.22F WCI  30
6HR MIN TEMP:  29; 6HR MAX TEMP:  37;

NEWPORT        CLEAR     31  27  85 S5        30.23F WCI  26
6HR MIN TEMP:  31; 6HR MAX TEMP:  35;

WALNUT RIDGE   CLEAR     30  21  69 S8        30.19F WCI  23
6HR MIN TEMP:  30; 6HR MAX TEMP:  34;

BLYTHEVILLE    CLOUDY    35  25  66 SW9       30.23S WCI  28
6HR MIN TEMP:  34; 6HR MAX TEMP:  36;

$$

ARZ022-023-033-042-044-071300-
CENTRAL ARKANSAS

CITY           SKY/WX    TMP DP  RH WIND       PRES   REMARKS
LITTLE ROCK    PTCLDY    32  24  72 W7        30.25S WCI  26
6HR MIN TEMP:  31; 6HR MAX TEMP:  37;

JACKSONVILLE   CLEAR     26  22  84 CALM      30.23S
6HR MIN TEMP:  26; 6HR MAX TEMP:  29;

SEARCY         CLEAR     27  25  93 CALM      30.25S
6HR MIN TEMP:  27; 6HR MAX TEMP:  30;

HOT SPRINGS    CLEAR     30  26  85 W3        30.25R
6HR MIN TEMP:  28; 6HR MAX TEMP:  33;

RUSSELLVILLE   PTCLDY    26  24  92 CALM      30.21F
6HR MIN TEMP:  26; 6HR MAX TEMP:  30;

CLINTON        FAIR      23  21  93 CALM      30.22F
$$

ARZ036-071300-
EAST ARKANSAS

CITY           SKY/WX    TMP DP  RH WIND       PRES   REMARKS
WEST MEMPHIS   CLEAR     29  27  92 S3        30.24R
6HR MIN TEMP:  28; 6HR MAX TEMP:  34;

$$

ARZ050-053-066-070-073-071300-
SOUTHWEST ARKANSAS

CITY           SKY/WX    TMP DP  RH WIND       PRES   REMARKS
ARKADELPHIA    FAIR      26  26 100 CALM      30.28R
6HR MIN TEMP:  26; 6HR MAX TEMP:  31;

CAMDEN         CLEAR     27  23  86 CALM      30.28S
TEXARKANA      CLEAR     34  31  88 S6        30.26S WCI  29
6HR MIN TEMP:  34; 6HR MAX TEMP:  40;

EL DORADO      CLEAR     27  24  89 CALM      30.27F FOG
6HR MIN TEMP:  27; 6HR MAX TEMP:  32;

DE QUEEN       CLEAR     25  24  96 CALM      30.25R FOG
6HR MIN TEMP:  25; 6HR MAX TEMP:  30;

$$

ARZ056-057-069-071300-
SOUTHEAST ARKANSAS

CITY           SKY/WX    TMP DP  RH WIND       PRES   REMARKS
PINE BLUFF     CLEAR     32  24  72 SW6       30.26R WCI  26
6HR MIN TEMP:  28; 6HR MAX TEMP:  34;

STUTTGART      CLEAR     36  25  64 S8        30.25R
6HR MIN TEMP:  36; 6HR MAX TEMP:  43;

MONTICELLO     CLEAR     36  26  67 W6        30.27R
6HR MIN TEMP:  31; 6HR MAX TEMP:  39;


$$






USA.gov is the U.S. government's official web portal to all federal, state and local government web resources and services.